Regional Weather Roundup
Issued by NWS Little Rock, AR

Home | Current Version | Previous Version | Graphics & Text | Print | Product List | Glossary On
Versions: 1 2 3 4 5 6 7 8 9 10 11 12 13 14 15 16 17 18 19 20 21 22 23 24 25 26 27 28 29 30 31 32 33 34 35 36 37 38 39 40 41 42 43 44 45 46 47 48 49 50
000
ASUS44 KLZK 221405
RWRLZK

WEATHER ROUNDUP FOR ARKANSAS
NATIONAL WEATHER SERVICE LITTLE ROCK AR
900 AM CDT WED MAR 22 2017

NOTE: "FAIR" INDICATES FEW OR NO CLOUDS BELOW 12,000 FEET WITH NO
SIGNIFICANT WEATHER AND/OR OBSTRUCTIONS TO VISIBILITY.

ARZ001-003-010-029-221500-
NORTHWEST ARKANSAS

CITY           SKY/WX    TMP DP  RH WIND       PRES   REMARKS
FAYETTEVILLE   CLOUDY    47  40  76 E12G18    30.25R
FORT SMITH     CLOUDY    54  43  66 E15G26    30.23R
HARRISON       CLOUDY    45  40  82 E8        30.31R
BENTONVILLE    CLOUDY    46  37  71 E14G21    30.27R
ROGERS         CLOUDY    46  39  76 E14G24    30.27R
SILOAM SPGS    CLOUDY    48  37  66 E9        30.24S
HIGHFILL       CLOUDY    48  37  65 E14G22    30.26R
SPRINGDALE     CLOUDY    46  37  71 E17G25    30.27R
$$

ARZ004-005-016-221500-
NORTH CENTRAL ARKANSAS

CITY           SKY/WX    TMP DP  RH WIND       PRES   REMARKS
BATESVILLE     CLOUDY    46  39  76 N7        30.33R
FLIPPIN        CLOUDY    46  34  61 E7        30.32R
MTN HOME       PTSUNNY   45  34  65 E10       30.32R
$$

ARZ040-041-221500-
WEST CENTRAL ARKANSAS

CITY           SKY/WX    TMP DP  RH WIND       PRES   REMARKS
MENA           MOSUNNY   55  46  71 E9        30.23R
MOUNT IDA      MOSUNNY   55  44  66 E6        30.23R
$$

ARZ009-017-025-026-028-221500-
NORTHEAST ARKANSAS

CITY           SKY/WX    TMP DP  RH WIND       PRES   REMARKS
CORNING        FAIR      48  37  66 NE16      30.35R
JONESBORO      CLOUDY    48  38  68 NE13G22   30.31R
NEWPORT        CLOUDY    47  41  80 NE14        N/A
WALNUT RIDGE   CLOUDY    46  36  66 NE16G22   30.33R
BLYTHEVILLE    CLOUDY    48  41  76 NE13      30.32S
$$

ARZ022-023-033-042-044-221500-
CENTRAL ARKANSAS

CITY           SKY/WX    TMP DP  RH WIND       PRES   REMARKS
LITTLE ROCK    CLOUDY    50  43  77 NE15      30.29R
N LITTLE ROCK    N/A     49  43  80 E12       30.29R
CONWAY           N/A     50  43  76 NE15      30.30R
SEARCY         LGT RAIN  48  45  89 NE7       30.33R
HOT SPRINGS    MOSUNNY   53  44  71 E13       30.27R
RUSSELLVILLE   CLOUDY    49  40  71 E8G17     30.31R
CLINTON        LGT RAIN  46  43  87 VRB3      30.32R
$$

ARZ036-221500-
EAST ARKANSAS

CITY           SKY/WX    TMP DP  RH WIND       PRES   REMARKS
WEST MEMPHIS   LGT RAIN  48  48 100 NE10      30.27F
$$

ARZ050-053-066-070-073-221500-
SOUTHWEST ARKANSAS

CITY           SKY/WX    TMP DP  RH WIND       PRES   REMARKS
ARKADELPHIA    PTSUNNY   54  46  74 NE8       30.26R
CAMDEN         MOSUNNY   57  45  62 NE10      30.24S
TEXARKANA      CLOUDY    55  47  74 E9        30.22R
EL DORADO      SUNNY     56  48  74 NE12      30.23R
DE QUEEN       CLOUDY    57  45  64 E14       30.20R
$$

ARZ056-057-069-221500-
SOUTHEAST ARKANSAS

CITY           SKY/WX    TMP DP  RH WIND       PRES   REMARKS
PINE BLUFF     PTSUNNY   52  45  77 NE14      30.27R
STUTTGART      CLOUDY    50  36  57 NE18      30.28R
MONTICELLO     CLOUDY    55  46  71 NE10G21   30.23R

$$





USA.gov is the U.S. government's official web portal to all federal, state and local government web resources and services.